Regional Weather Roundup
Issued by NWS

Home | Current Version | Previous Version | Text Only | Print | Product List | Glossary Off
Versions: 1 2 3 4 5 6 7 8 9 10 11 12 13 14 15 16 17 18 19 20 21 22 23 24 25 26 27 28 29 30 31 32 33 34 35 36 37 38 39 40 41 42 43 44 45 46 47 48 49 50

000
ASUS43 KLMK 280910
RWRKY
KENTUCKY REGIONAL WEATHER ROUNDUP
NATIONAL WEATHER SERVICE LOUISVILLE KY
400 AM EST WED JAN 28 2015

NOTE "FAIR" INDICATES FEW OR NO CLOUDS BELOW 12,000 FEET
WITH NO SIGNIFICANT WEATHER AND/OR OBSTRUCTIONS TO VISIBILITY.

KYZ001>023-026-027-061>063-070>075-281000-
WESTERN AND SOUTH CENTRAL KENTUCKY

CITY           SKY/WX    TMP DP  RH WIND       PRES   REMARKS
PADUCAH        CLEAR     27  24  89 CALM      30.26R
HENDERSON      CLOUDY    32  25  74 E7        30.28F WCI  26
OWENSBORO      CLOUDY    32  27  82 CALM      30.29S
HOPKINSVILLE   CLOUDY    31  29  90 NE6       30.26R WCI  26
BOWLING GREEN  CLOUDY    32  24  72 NE8       30.28R WCI  25
GLASGOW        MOCLDY    26  17  71 NE5       30.27S WCI  20
$$

KYZ024-025-028>034-038-045-046-053-281000-
NORTH CENTRAL KENTUCKY

CITY           SKY/WX    TMP DP  RH WIND       PRES   REMARKS
LOUISVILLE/SDF CLEAR     23  13  65 NE3       30.31R
LOUISVILLE/LOU CLEAR     21  13  71 CALM      30.31R
FORT KNOX      CLEAR     21  14  74 NE5       30.27F WCI  15
$$

KYZ035>037-039>044-047>052-055>060-089>105-281000-
NORTHEAST KENTUCKY

CITY           SKY/WX    TMP DP  RH WIND       PRES   REMARKS
LEXINGTON      CLEAR     16  11  80 E3        30.27S
COVINGTON      CLEAR     15  11  83 CALM      30.28R FOG
FRANKFORT      CLEAR     14  10  84 CALM      30.27S
$$

KYZ054-064>069-076>088-106>120-281000-
SOUTHEAST KENTUCKY

CITY           SKY/WX    TMP DP  RH WIND       PRES   REMARKS
JACKSON        CLEAR     16  10  77 CALM      30.23R
LONDON         CLEAR     21  12  68 CALM      30.24R
SOMERSET       CLEAR     21  14  73 N5        30.28R WCI  15
MIDDLESBORO    CLEAR     20  17  87 CALM      30.24R
MONTICELLO     SUNNY     18  15  88 CALM      30.29R
$$




USA.gov is the U.S. government's official web portal to all federal, state and local government web resources and services.